Погода в Даусузе

Россия / Карачаево-Черкесская Республика     43°47′46″N   41°32′54″E
темп.,
°C
ветер,
м/с
пор.,
м/с
влажн.,
%
обл.,
%
осадки,
мм/ч
давл.,
гПа
погр.,
м
15 апреля, чт
чт1500:00+2ююз228151 0.0 102036
03:00+3ююз227376 0.0 101933
06:00+1ююз33690 0.0 102045
09:00+9ссв214420 0.0 1016591
12:00+12ссв333741 0.0 10151505
15:00+12ссв3340100 0.0 10151793
18:00+9с126499 0.1 101676
21:00+5ююз2277100 0.1 101923
16 апреля, пт
пт1600:00+4ююз2272100 0.0 101932
03:00+4ююз2275100 0.0 101940
06:00+4ююз227494 0.0 101932
09:00+11ссв2250100 0.0 1016760
12:00+14ссв244199 0.2 10151654
15:00+14сз244296 0.6 10151805
18:00+10с1170100 1.1 1016171
21:00+6всв1192100 1.3 102089
17 апреля, сб
сб1700:00+5ю119098 0.0 101964
03:00+5зюз1189100 0.3 101932
06:00+5всв1197100 1.8 1021217
09:00+4ссв2297100 2.2 1022259
12:00+5св2195100 0.1 1022459
15:00+4ссв1297100 0.8 1022271
18:00+4св1298100 1.6 1023220
21:00+4св119889 1.6 1023104
18 апреля, вс
вс1800:00+4ссв1198100 0.0 102264
03:00+3ссв0194100 0.0 102018
06:00+5ююз0191100 0.0 101924
09:00+10ссв1277100 0.2 1017442
12:00+13ссв1368100 0.3 1016747
15:00+13ссв2274100 0.9 1016555
18:00+10с239187 1.3 1019243
21:00+8с019783 1.3 1020105
19 апреля, пн
пн1900:00+7ю118975 0.0 102025
03:00+7ююз2284100 0.0 102024
06:00+7ююз2181100 0.0 102018
09:00+13ссв2164100 0.0 1019448
12:00+16ссв325291 0.0 10181260
15:00+16св325999 0.0 1016928
18:00+13св2378100 0.0 1016176
21:00+10ю3270100 0.0 101542